Volver al catálogo

STARLINK-6100

ActivoComunicacionesVLEO
NORAD 57125·PAYLOAD·🇺🇸 United States

Lanzado Jun 23, 2023 desde Cape Canaveral Space Force Station

Loading…

Próximos Pases (próximas 24 horas)

TLE

ActualizadoSource: CelesTrak SupGP

Época: Sep 14, 2026, 21:24 UTC

1 57125C 23090AA  26257.89215278  .00014197  00000+0  51417-3 0  2577
2 57125  43.0025 274.7032 0001947 273.1294 347.5399 15.27572237    12

Sigue STARLINK-6100 en tiempo real con AllMySat

Download on the App Store